[TLELIST] Archives

 

[TLELIST] Current TLEs

March 9th 2025 PST

HST 1 20580U 90037B 25067.49952209 .00009765 00000-0 38900-3 0 9994 2 20580 28.4695 6.6563 0002110 47.4203 312.6569 15.23500934717303 ISS (ZARYA) 1 25544U 98067A 25068.38968922 .00010660 00000-0 19558-3 0 9992 2 25544 51.6366 81.3254 0006344 1.9459 74.7103 15.49832014499682 CXO 1 25867U 99040B 25068.94821828 .00000959 00000-0 00000-0 0 9996 2 25867 47.2989 134.7220 8571355 307.6356 0.2414 0.37805294 15579 ...Continue Reading

[TLELIST] Current TLEs

March 8th 2025 PST

HST 1 20580U 90037B 25066.51691254 .00008783 00000-0 34926-3 0 9999 2 20580 28.4694 13.2976 0002065 37.9671 322.1068 15.23482481717155 ISS (ZARYA) 1 25544U 98067A 25067.37906250 .00010334 00000-0 19002-3 0 9998 2 25544 51.6364 86.3312 0006264 358.6322 195.6506 15.49806834499526 CXO 1 25867U 99040B 25068.94821828 .00000959 00000-0 00000-0 0 9996 2 25867 47.2989 134.7220 8571355 307.6356 0.2414 0.37805294 15579 ...Continue Reading

[TLELIST] Current TLEs

March 7th 2025 PST

HST 1 20580U 90037B 25065.53429201 .00008779 00000-0 34928-3 0 9998 2 20580 28.4692 19.9387 0002016 29.0281 331.0425 15.23465156717007 ISS (ZARYA) 1 25544U 98067A 25066.26578413 .00009044 00000-0 16748-3 0 9991 2 25544 51.6364 91.8418 0006216 352.6793 106.2280 15.49780711499350 CXO 1 25867U 99040B 25063.66024806 .00000945 00000-0 00000-0 0 9996 2 25867 47.1628 135.0530 8579164 307.4424 0.5388 0.37810766 15546 ...Continue Reading

[TLELIST] Current TLEs

March 7th 2025 PST

HST 1 20580U 90037B 25065.53429201 .00008779 00000-0 34928-3 0 9998 2 20580 28.4692 19.9387 0002016 29.0281 331.0425 15.23465156717007 ISS (ZARYA) 1 25544U 98067A 25066.26578413 .00009044 00000-0 16748-3 0 9991 2 25544 51.6364 91.8418 0006216 352.6793 106.2280 15.49780711499350 CXO 1 25867U 99040B 25063.66024806 .00000945 00000-0 00000-0 0 9996 2 25867 47.1628 135.0530 8579164 307.4424 0.5388 0.37810766 15546 ...Continue Reading

[TLELIST] Current TLEs

March 6th 2025 PST

HST 1 20580U 90037B 25065.14124078 .00008968 00000-0 35705-3 0 9993 2 20580 28.4692 22.5951 0002002 25.2089 334.8602 15.23458372717205 ISS (ZARYA) 1 25544U 98067A 25065.50081425 .00012212 00000-0 22335-3 0 9999 2 25544 51.6362 95.6311 0006027 350.1855 157.9950 15.49766733499236 CXO 1 25867U 99040B 25063.66024806 .00000945 00000-0 00000-0 0 9996 2 25867 47.1628 135.0530 8579164 307.4424 0.5388 0.37810766 15546 ...Continue Reading

[TLELIST] Current TLEs

March 5th 2025 PST

HST 1 20580U 90037B 25063.24146709 .00008512 00000-0 33885-3 0 9999 2 20580 28.4695 35.4344 0001989 3.7640 356.2968 15.23424522716655 ISS (ZARYA) 1 25544U 98067A 25064.20409503 .00012342 00000-0 22590-3 0 9993 2 25544 51.6363 102.0557 0005976 345.4695 123.4046 15.49734770499031 CXO 1 25867U 99040B 25063.66024806 .00000945 00000-0 00000-0 0 9996 2 25867 47.1628 135.0530 8579164 307.4424 0.5388 0.37810766 15546 ...Continue Reading

[TLELIST] Current TLEs

March 4th 2025 PST

HST 1 20580U 90037B 25062.25880902 .00008439 00000-0 33601-3 0 9993 2 20580 28.4693 42.0755 0001958 352.8916 7.1650 15.23407974716509 ISS (ZARYA) 1 25544U 98067A 25063.50057084 .00012782 00000-0 23378-3 0 9991 2 25544 51.6364 105.5411 0005983 342.8432 158.4682 15.49717966498926 CXO 1 25867U 99040B 25063.66024806 .00000945 00000-0 00000-0 0 9996 2 25867 47.1628 135.0530 8579164 307.4424 0.5388 0.37810766 15546 ...Continue Reading

[TLELIST] Current TLEs

March 3rd 2025 PST

HST 1 20580U 90037B 25061.99676539 .00007622 00000-0 30274-3 0 9998 2 20580 28.4691 43.8464 0001955 350.2825 9.7730 15.23402697716729 ISS (ZARYA) 1 25544U 98067A 25062.33269009 .00018448 00000-0 33382-3 0 9994 2 25544 51.6363 111.3248 0005805 336.6569 124.8426 15.49700560498748 CXO 1 25867U 99040B 25063.66024806 .00000945 00000-0 00000-0 0 9996 2 25867 47.1628 135.0530 8579164 307.4424 0.5388 0.37810766 15546 ...Continue Reading

[TLELIST] Current TLEs

March 2nd 2025 PST

HST 1 20580U 90037B 25060.35897375 .00010740 00000-0 43030-3 0 9999 2 20580 28.4687 54.9158 0001925 331.2115 28.8372 15.23373042716214 ISS (ZARYA) 1 25544U 98067A 25061.36530999 .00013429 00000-0 24568-3 0 9995 2 25544 51.6361 116.1146 0006153 335.3707 125.6952 15.49660855498591 CXO 1 25867U 99040B 25063.66024806 .00000945 00000-0 00000-0 0 9996 2 25867 47.1628 135.0530 8579164 307.4424 0.5388 0.37810766 15546 ...Continue Reading

[TLELIST] Current TLEs

March 2nd 2025 PST

HST 1 20580U 90037B 25060.35897375 .00010740 00000-0 43030-3 0 9999 2 20580 28.4687 54.9158 0001925 331.2115 28.8372 15.23373042716214 ISS (ZARYA) 1 25544U 98067A 25061.36530999 .00013429 00000-0 24568-3 0 9995 2 25544 51.6361 116.1146 0006153 335.3707 125.6952 15.49660855498591 CXO 1 25867U 99040B 25063.66024806 .00000945 00000-0 00000-0 0 9996 2 25867 47.1628 135.0530 8579164 307.4424 0.5388 0.37810766 15546 ...Continue Reading
  • This mailing list is a public mailing list - anyone may join or leave, at any time.
  • This mailing list is announce-only.

International Space Station (ISS) / Hubble Space Telescope (HST) / Chandra X-Ray Observatory Orbital Data via EMAIL

Privacy Policy:

Private list